Theta_e
332 332 332 331 333 334 332 331 330 328 326 325 323 324 328 329 328 328 326 327 327 326 326 325 325 324 323 322 321 322 321 320 321 320 320 320 319 318 318 318 318 318 318 318 318 318 319 318 319 318 318 318 319 319 318 317 317 316 316 315 315 316 316 316 314 314 314 314 314 314 313 313 314 315 312 310 312 313 312 313 313 314 316 316 316
332 331 331 332 333 333 332 332 331 330 328 326 324 325 329 328 326 328 328 327 326 326 327 327 327 326 326 324 322 322 323 321 321 321 320 320 319 319 319 318 318 318 318 318 318 318 319 318 318 318 318 318 318 318 318 317 317 316 316 315 315 316 316 315 314 314 314 314 315 314 314 313 313 314 312 311 313 312 312 313 312 313 315 316 316
332 331 331 331 333 333 333 333 332 332 330 327 326 326 327 328 327 327 327 326 324 324 326 327 326 326 327 327 325 325 325 321 321 321 320 320 319 319 319 318 318 318 318 318 318 319 318 318 318 318 318 318 318 317 318 318 316 316 316 315 315 316 316 315 314 314 314 314 314 314 315 314 314 314 312 311 312 311 312 312 312 314 315 315 316
332 331 333 332 333 334 333 334 334 333 332 330 328 327 327 328 327 328 328 326 326 326 323 323 326 326 327 326 324 324 324 322 320 320 320 320 320 320 319 319 318 318 318 318 318 318 318 318 318 318 318 317 317 317 317 317 317 316 316 315 315 316 316 315 314 314 314 314 314 314 314 314 314 314 312 312 311 311 312 312 313 315 315 315 316
333 332 335 335 335 336 334 335 335 334 334 332 330 328 327 327 327 328 328 326 326 326 322 322 326 327 326 324 321 320 321 321 320 321 321 321 320 320 320 319 319 319 318 318 319 319 319 319 319 318 318 318 318 318 317 317 317 316 316 315 315 316 316 316 315 314 314 313 313 314 313 314 314 313 312 313 311 311 313 313 313 315 314 315 315
336 335 335 336 336 337 336 335 335 334 334 333 331 329 327 328 328 328 329 327 325 325 323 323 326 325 324 325 323 322 323 323 323 323 323 321 320 321 321 320 319 319 319 319 319 319 319 319 319 318 318 318 318 318 317 318 318 317 316 315 315 315 316 316 315 314 313 312 312 312 312 312 314 314 313 313 312 311 313 313 314 315 314 315 314
336 336 334 335 337 338 338 336 335 335 334 334 332 329 327 327 328 326 328 327 324 325 324 324 326 326 326 326 326 326 326 324 323 324 324 321 320 321 321 320 319 319 320 320 319 319 319 319 319 319 319 319 319 317 317 318 318 317 316 315 315 315 315 315 315 314 313 313 312 311 311 310 311 313 314 314 313 313 313 314 314 314 314 314 313
334 336 336 337 338 338 338 337 335 334 334 334 332 330 326 326 327 325 327 326 323 325 325 323 326 328 327 327 327 327 326 325 324 324 324 323 322 321 321 321 321 321 320 320 320 319 319 319 319 319 319 319 319 317 317 318 317 317 316 316 315 315 315 315 314 314 314 314 312 312 311 310 310 311 312 313 314 314 314 314 314 314 314 314 313
332 335 336 337 339 339 339 338 336 335 334 334 333 331 327 325 326 325 326 325 323 325 325 323 325 327 328 327 327 326 325 325 325 324 324 324 323 323 322 322 321 321 321 321 320 319 319 319 319 319 319 319 319 317 317 318 317 317 316 316 316 315 315 314 314 313 314 314 313 312 312 310 310 311 311 312 314 315 314 314 314 314 314 313 313
331 333 334 337 339 339 339 338 336 335 334 334 334 333 329 326 325 325 325 325 324 324 324 324 324 325 327 327 327 327 327 326 325 324 324 324 324 324 323 323 322 322 322 321 321 319 320 320 319 319 319 319 318 317 317 317 315 316 316 316 315 315 314 314 313 313 313 313 312 312 312 311 311 312 312 313 314 314 314 314 314 314 314 314 313
331 332 333 335 337 337 338 338 336 335 335 334 334 334 332 329 326 325 325 325 325 323 322 324 324 324 325 326 326 326 326 326 325 324 324 324 325 324 324 324 323 322 321 321 321 320 320 320 319 319 318 318 318 317 317 315 314 315 315 315 315 314 314 313 313 313 313 312 312 311 311 310 311 313 313 313 314 314 314 314 314 314 314 314 313
331 332 332 335 338 339 339 338 337 336 335 335 335 334 334 332 330 328 326 326 327 325 322 323 325 324 324 325 326 326 324 325 325 324 324 323 324 324 325 324 323 322 322 322 322 321 321 320 320 320 318 318 318 317 315 314 313 315 316 316 315 314 314 313 313 313 312 312 312 311 311 309 310 312 312 313 314 314 314 314 314 314 313 313 312
331 333 336 339 341 341 341 339 337 337 335 335 335 334 334 334 332 331 329 326 327 326 324 323 324 325 325 325 324 324 323 323 323 323 324 323 322 323 325 324 324 324 324 322 321 322 321 320 320 320 318 318 318 316 314 313 314 316 316 316 315 315 315 314 313 313 312 312 312 311 311 309 310 311 312 312 313 313 313 314 313 313 313 313 312
332 335 337 338 340 340 341 340 338 337 336 335 335 334 334 334 334 334 331 328 327 327 325 324 324 324 325 324 324 323 324 323 322 322 322 324 324 323 323 324 324 324 323 322 322 322 320 319 320 319 318 318 317 315 313 313 315 317 317 317 316 315 315 314 313 313 312 312 312 312 311 309 310 311 312 312 313 313 313 313 313 313 313 312 311
333 335 335 335 337 339 340 341 340 339 337 336 336 335 334 334 335 335 334 331 329 327 326 325 324 324 324 324 324 324 324 325 324 323 323 324 323 323 323 323 323 323 322 322 322 321 320 319 319 319 318 318 317 315 313 313 315 316 316 316 316 315 315 314 314 313 313 313 312 311 310 309 310 311 311 312 312 312 312 313 313 313 313 312 311
332 334 335 335 336 337 339 341 341 341 338 336 336 335 334 335 335 336 335 334 331 329 327 326 325 325 325 324 324 323 323 324 325 325 325 323 321 321 323 323 323 323 322 322 321 321 320 319 319 318 317 318 317 314 312 313 315 315 316 316 316 315 314 314 314 313 313 313 312 311 310 309 310 311 311 312 312 311 312 312 312 313 313 313 312
332 333 334 335 336 336 338 339 340 341 339 337 336 335 334 335 336 336 335 335 333 331 329 326 325 325 325 325 324 324 323 323 323 324 324 324 322 321 322 323 323 323 323 321 321 321 320 319 319 318 317 318 317 315 312 313 314 315 316 316 316 315 314 314 314 313 312 312 311 310 310 309 310 311 311 312 312 312 312 312 312 312 313 313 313
332 332 334 336 337 336 336 338 337 338 340 338 337 336 335 335 337 336 336 336 334 332 330 327 326 325 325 325 325 324 324 323 323 323 323 324 324 323 322 322 321 321 322 321 321 321 320 320 319 318 318 318 317 315 313 312 313 315 316 316 316 315 313 313 312 311 310 310 310 310 310 309 309 310 311 312 312 312 312 312 312 312 312 313 313
333 332 335 337 337 336 336 336 334 336 340 339 338 337 336 336 337 337 336 336 335 333 331 330 327 326 325 325 325 324 324 324 324 324 324 323 322 323 323 322 321 321 322 322 322 322 321 320 320 319 319 318 317 316 313 312 313 314 315 316 316 313 312 311 310 309 308 309 310 309 309 310 309 310 311 312 312 312 312 312 311 312 311 312 313
334 331 333 336 336 335 336 336 333 335 338 337 337 338 337 338 337 337 337 336 335 334 332 331 330 328 325 324 325 324 324 324 323 323 323 323 321 321 321 322 323 323 324 323 322 322 321 321 320 319 318 317 316 315 313 312 312 313 315 316 315 312 311 311 311 309 307 307 309 309 309 310 309 310 311 312 312 312 312 312 311 311 311 311 311
337 334 333 335 337 335 334 334 333 335 335 333 336 338 337 338 338 337 338 337 336 335 333 332 332 330 327 324 324 324 323 323 323 322 322 322 322 321 321 321 322 323 323 323 322 322 321 320 319 319 318 316 316 315 313 312 311 312 315 316 314 312 311 312 311 310 307 305 307 309 309 309 309 310 311 312 312 312 312 312 312 311 311 311 311
341 340 334 335 338 334 333 334 332 334 334 331 334 336 335 336 336 336 338 338 337 336 334 333 332 331 329 325 324 324 323 323 322 322 322 323 322 321 321 321 321 321 321 322 322 321 320 320 319 318 317 316 316 314 313 311 310 311 313 314 314 312 311 311 311 310 308 305 306 308 309 309 309 309 311 312 312 312 311 312 312 311 311 311 310
339 340 336 337 338 333 332 334 332 333 334 332 333 335 334 334 333 333 336 338 337 336 335 334 333 332 330 328 326 325 324 323 322 322 323 323 322 321 321 322 322 321 321 321 321 320 320 319 319 318 317 316 316 315 313 311 309 311 312 313 313 312 311 312 311 310 308 306 305 307 309 309 309 309 311 311 311 311 311 312 311 311 311 311 310
338 338 339 338 337 333 332 334 332 332 334 333 334 334 333 333 333 332 334 337 337 336 336 335 334 333 332 330 328 326 325 324 323 323 323 323 322 322 322 322 322 322 322 321 320 320 320 319 318 318 317 316 315 314 314 311 309 310 311 310 310 311 311 311 311 310 309 307 305 306 308 309 309 310 310 311 311 311 311 312 311 310 310 310 310
340 338 341 340 335 332 332 334 334 332 334 335 334 334 333 333 334 333 333 336 336 335 335 335 335 334 333 332 331 329 327 325 324 323 323 322 322 322 322 322 322 322 322 321 320 320 320 320 319 318 317 316 315 314 313 311 309 309 310 310 310 311 310 310 311 310 309 307 305 305 308 308 308 310 309 310 311 310 311 311 310 309 309 310 311
340 340 345 344 337 333 333 333 333 333 334 335 334 334 333 333 335 334 333 335 336 335 335 335 335 335 334 334 333 331 329 327 325 324 323 322 322 322 322 322 322 322 322 321 320 319 320 320 319 318 316 315 315 314 312 311 308 307 308 309 310 310 310 311 312 311 310 308 305 305 307 307 308 309 308 310 309 308 310 310 308 308 309 309 311
341 344 347 346 341 340 340 336 333 333 333 334 335 334 332 332 334 335 334 334 336 336 336 335 335 335 335 335 335 333 332 330 328 326 324 323 322 322 322 322 322 322 322 321 321 320 319 319 319 318 316 315 314 313 312 311 309 307 306 307 308 310 311 311 312 312 311 310 307 305 306 307 307 307 308 309 308 306 309 310 308 308 309 310 312
338 340 342 341 341 344 346 341 334 334 334 333 335 335 333 332 334 336 335 334 336 337 337 336 335 335 335 335 335 335 334 333 331 328 326 325 324 323 323 323 322 322 321 321 320 320 319 319 319 318 317 315 313 313 312 310 308 307 306 306 308 310 311 311 312 311 310 310 307 306 307 306 304 305 306 307 306 305 307 308 308 308 309 311 313
334 335 337 338 337 340 345 342 336 336 335 333 333 333 334 333 334 335 335 335 337 338 338 337 336 336 336 336 335 335 335 334 333 331 328 326 325 324 324 324 324 323 322 321 320 320 319 318 318 318 317 316 313 312 312 311 309 307 306 305 306 308 310 311 312 310 309 309 307 305 306 305 302 304 306 305 305 305 305 306 307 308 310 312 312
334 334 334 335 335 336 341 341 338 338 336 334 333 333 334 334 334 335 336 336 338 338 338 338 337 337 337 337 336 336 335 334 333 332 331 329 327 326 325 325 325 324 323 323 321 320 319 318 318 317 317 316 314 312 311 311 311 308 306 304 305 308 310 310 310 309 308 309 307 305 307 306 303 305 306 306 306 305 305 306 307 308 309 310 311
333 334 334 335 336 337 339 338 338 338 336 336 337 336 335 335 335 336 336 337 337 337 338 338 337 336 336 336 336 336 335 335 334 333 332 331 329 327 326 326 326 326 325 324 323 322 321 320 319 318 317 316 314 313 312 311 310 309 308 306 304 305 308 310 310 310 309 309 307 305 306 308 307 306 307 307 307 306 305 307 308 308 308 309 310
333 333 333 335 336 337 339 337 336 336 335 336 337 337 336 337 338 337 337 337 337 336 336 337 337 336 336 335 335 336 335 334 334 334 333 332 331 329 328 327 327 326 326 326 324 323 322 321 320 319 317 315 314 314 312 311 311 309 309 308 303 300 303 308 309 309 309 308 306 305 306 307 308 306 306 308 309 308 306 307 308 308 309 309 310
333 332 332 333 334 336 338 337 334 334 335 336 337 338 338 338 339 338 337 337 337 336 336 336 336 336 336 335 334 334 334 333 333 333 332 332 332 331 330 329 328 327 327 327 326 325 324 323 322 320 317 315 314 315 314 312 311 310 309 309 305 298 298 303 308 309 309 308 305 305 306 307 307 307 307 309 311 310 309 309 309 309 310 310 310
333 332 332 335 336 337 337 336 335 336 337 338 338 339 338 338 337 337 337 337 336 335 335 335 334 333 333 333 332 332 331 331 331 331 330 331 330 330 330 330 330 329 328 327 326 326 325 325 324 321 319 316 315 315 314 313 311 310 308 309 306 299 295 299 305 309 310 308 305 304 306 308 309 308 308 307 308 310 311 311 310 310 311 311 311
337 338 339 340 340 341 339 338 338 338 338 338 338 338 337 337 337 335 335 334 333 332 332 331 329 329 329 328 328 328 328 328 328 328 328 329 329 329 329 329 330 329 328 328 327 326 326 325 325 322 319 317 316 314 314 313 312 310 309 308 306 299 295 296 302 308 310 308 305 304 306 308 309 309 307 305 304 307 309 310 311 311 311 310 309
343 344 345 344 342 342 341 339 338 338 337 337 337 336 335 334 333 332 330 329 329 328 327 327 326 326 325 325 325 325 325 325 326 326 326 327 327 327 327 327 328 328 328 328 327 326 326 325 324 322 320 318 317 315 315 314 312 310 309 307 305 300 295 294 300 307 310 308 305 304 306 307 308 308 307 305 303 304 306 309 310 311 310 309 308
343 343 344 343 341 340 339 337 335 335 333 333 332 331 330 329 328 328 327 326 325 324 324 323 323 323 322 322 322 322 324 325 325 326 326 326 326 326 326 326 326 327 327 327 326 325 325 324 324 322 321 319 318 317 315 314 313 311 309 308 305 300 294 293 298 305 309 308 305 304 306 307 307 307 307 305 303 304 306 308 310 311 310 310 309
342 341 341 339 337 335 333 332 331 329 328 328 328 327 327 327 326 325 325 324 323 322 322 320 320 321 320 320 320 321 323 324 324 324 324 324 324 325 325 326 326 326 326 326 325 325 324 324 324 322 321 320 319 318 317 315 313 312 309 308 306 300 295 297 302 306 309 307 304 304 306 307 307 306 305 304 304 304 305 308 309 310 311 311 310
340 339 337 334 332 331 329 329 329 328 328 327 326 326 326 325 324 323 322 322 322 321 321 320 321 321 320 320 321 322 322 322 322 322 323 323 323 324 324 324 324 324 325 324 324 324 323 323 324 323 322 321 319 319 318 316 314 313 310 309 306 299 298 302 306 308 308 306 304 304 304 305 306 306 304 304 304 303 304 307 309 310 310 311 311
336 334 331 330 330 329 329 329 329 328 328 327 325 325 324 323 322 322 321 321 321 321 321 322 321 320 320 321 322 322 322 322 322 322 322 321 321 321 321 322 322 323 324 323 323 323 323 323 323 323 322 321 319 319 318 316 315 313 311 310 305 299 300 304 306 308 308 305 304 303 300 300 303 304 302 302 302 303 304 306 308 308 309 310 310
332 330 330 330 330 329 329 329 328 327 326 325 325 324 323 322 322 322 321 321 321 321 321 320 318 318 320 321 321 320 321 322 321 321 320 319 319 319 320 321 321 322 322 322 323 323 323 323 323 322 321 321 319 319 318 317 316 313 311 310 305 299 300 304 306 308 308 304 303 303 300 298 298 298 298 299 299 301 304 306 306 305 306 308 309
331 330 330 330 329 328 327 326 325 325 324 323 323 323 323 323 322 322 321 320 320 321 319 317 316 318 319 319 318 318 319 320 320 319 317 316 316 317 320 321 321 321 321 321 321 321 322 322 322 322 322 321 320 319 318 317 316 314 312 311 306 300 299 303 307 308 306 304 303 303 302 300 297 295 295 296 296 298 303 305 305 303 304 306 308
331 330 329 328 327 326 325 324 324 324 323 323 323 322 323 323 322 321 319 318 319 319 317 316 316 317 318 317 317 317 317 318 318 316 315 314 314 316 318 318 318 319 321 320 319 320 321 321 321 321 321 321 320 320 319 317 316 315 313 311 308 302 298 302 307 307 304 303 303 302 303 303 299 295 295 295 294 297 302 305 304 303 303 306 308
330 329 327 326 325 324 324 323 323 323 322 323 322 322 321 321 320 320 318 317 318 317 316 316 316 316 316 316 316 316 316 315 315 314 314 314 314 314 314 315 315 316 318 318 318 319 319 319 319 319 319 320 320 320 319 318 317 316 313 311 308 303 299 300 305 304 302 302 302 302 303 302 298 296 295 294 293 295 300 304 303 302 304 306 308
329 327 326 325 325 324 323 322 322 322 322 322 322 321 320 319 319 318 317 316 316 315 315 315 315 314 314 314 314 314 313 313 312 312 312 313 312 312 312 313 313 313 315 316 316 316 316 316 317 317 316 317 319 319 319 318 317 316 314 311 308 304 299 299 303 302 300 300 301 301 302 300 297 295 296 296 294 295 298 302 303 302 303 307 308
327 326 326 325 324 324 323 322 322 321 321 321 321 320 319 318 317 317 316 316 315 314 314 313 313 313 312 312 312 312 311 311 311 311 312 312 312 312 312 312 312 312 313 313 313 313 314 314 314 314 312 313 317 319 319 318 316 315 313 310 308 303 298 298 302 301 299 300 300 300 300 299 297 296 296 298 299 298 298 300 302 301 303 306 307
327 326 325 324 324 323 323 322 322 321 320 319 319 318 318 317 316 315 315 314 314 313 312 312 312 312 311 311 312 312 312 312 312 312 312 312 312 313 313 312 313 313 313 313 312 312 313 312 312 312 311 311 314 317 318 317 314 311 309 308 306 301 296 298 302 301 299 299 299 299 300 298 297 296 296 298 301 301 299 299 301 302 304 306 307
326 325 325 324 323 323 322 322 322 321 320 319 318 317 316 315 314 313 312 312 312 311 311 311 311 312 312 312 312 312 312 312 312 312 312 312 312 313 312 313 313 312 312 312 311 312 312 312 312 312 312 311 311 314 317 316 312 309 308 307 305 298 293 297 302 300 298 298 298 299 299 297 296 297 296 297 299 299 299 300 300 302 304 306 308
326 325 324 323 323 322 321 321 321 320 319 318 317 316 314 313 312 311 311 311 311 311 311 312 312 313 313 312 312 312 312 312 312 312 312 312 312 312 312 312 312 311 310 309 308 309 310 310 311 311 311 312 311 313 315 315 313 312 310 308 307 299 293 297 302 299 296 298 299 298 297 296 296 297 295 296 298 298 299 300 301 302 305 307 308
324 324 323 322 322 321 321 321 320 319 319 318 316 314 313 311 310 310 310 311 311 311 312 312 313 313 312 311 311 311 311 311 311 311 312 311 312 311 311 311 310 309 309 307 307 307 308 308 309 310 310 311 311 311 312 312 313 314 310 309 310 302 294 297 301 298 296 299 299 298 298 298 297 296 296 297 299 300 301 303 303 304 306 307 308
323 323 322 321 321 321 320 319 319 318 317 316 315 312 311 310 309 310 311 311 311 312 312 313 313 312 311 310 310 311 311 311 310 311 310 310 310 310 310 310 309 307 307 306 306 307 307 307 307 307 308 310 310 311 311 311 312 313 309 308 308 303 296 297 299 297 297 300 299 299 299 298 297 296 297 299 300 301 302 304 304 304 305 306 307
Wind_Speed
8 11 10 10 11 12 12 12 11 10 10 10 10 10 9 9 9 8 8 8 8 8 8 9 9 8 7 4 5 7 5 3 4 4 3 1 3 2 3 5 5 6 6 5 7 6 2 7 9 10 11 10 11 12 12 14 15 16 13 14 16 17 19 17 19 22 17 15 15 15 18 21 21 19 25 28 23 22 21 19 21 21 21 22 22
9 11 10 11 12 13 13 13 13 12 11 11 10 11 10 9 9 9 9 8 9 9 7 8 7 3 2 4 4 4 3 3 3 3 1 3 2 2 4 5 3 6 8 6 7 6 2 8 9 10 11 10 11 12 12 13 14 16 14 15 16 17 17 16 20 20 14 13 12 10 11 16 18 17 25 27 20 21 23 20 22 21 20 23 23
9 9 10 12 13 14 13 13 13 12 11 11 11 11 10 10 9 9 9 8 8 8 5 5 6 4 4 3 4 7 5 2 1 0 2 3 3 3 4 4 3 6 9 6 7 5 6 9 9 9 10 9 10 11 11 12 12 14 14 15 15 15 14 16 19 18 16 16 11 6 6 8 10 11 20 23 18 21 21 20 22 20 20 25 24
8 8 8 10 13 15 13 13 13 12 11 11 11 11 11 10 10 9 9 8 7 7 6 5 5 5 3 3 3 5 5 2 3 5 6 7 6 5 4 4 4 6 7 6 7 7 8 8 8 11 11 9 11 10 11 12 12 13 13 14 14 13 13 15 17 18 20 16 7 4 5 6 5 7 12 15 19 22 20 21 23 20 23 26 23
7 8 7 8 12 14 14 13 13 12 12 11 12 11 10 11 10 9 9 8 7 7 7 6 5 4 3 2 3 4 3 4 6 9 9 7 5 5 5 5 4 6 7 6 8 8 7 8 8 10 10 11 12 10 11 13 12 13 13 13 14 14 14 14 14 17 20 18 10 5 5 5 4 8 10 9 17 23 21 23 23 21 26 26 22
7 8 9 8 11 14 14 14 14 12 12 12 12 11 10 11 11 10 9 8 7 7 7 7 6 6 5 5 6 7 7 8 8 6 4 3 5 4 3 5 6 8 7 6 8 8 7 8 8 9 10 10 11 10 11 12 11 12 13 12 12 13 14 13 14 16 17 18 17 12 8 8 8 8 7 7 14 20 20 22 23 23 26 24 22
7 7 9 9 11 12 13 14 14 12 12 12 11 11 11 11 11 10 9 8 7 7 8 7 7 7 8 8 8 8 7 7 5 4 4 4 6 5 3 7 9 8 6 5 7 7 7 7 7 9 9 10 10 10 10 10 10 10 11 11 10 11 12 11 12 15 14 14 18 19 14 15 15 10 6 5 9 14 19 21 22 23 24 23 25
9 8 9 9 10 12 13 14 14 13 12 12 12 11 11 11 11 11 9 8 8 8 8 8 7 7 8 8 7 7 7 7 5 4 4 4 6 6 6 8 9 6 3 5 7 7 7 7 8 8 8 9 9 9 10 10 10 10 11 11 9 9 9 8 10 13 14 12 17 21 17 16 18 15 12 9 5 7 12 16 21 25 23 23 26
10 10 10 9 10 13 14 14 13 13 13 13 13 12 12 12 11 11 10 9 8 9 9 8 8 7 7 8 8 8 8 7 6 5 5 4 5 6 7 8 8 5 4 6 6 6 8 7 7 8 7 8 7 8 10 10 10 9 10 12 11 9 7 6 8 11 13 13 16 19 17 15 16 15 15 13 8 6 7 9 14 20 21 23 28
9 11 11 11 12 15 15 15 14 14 14 14 13 13 13 12 12 12 10 9 9 9 9 9 8 8 7 8 8 8 7 7 5 5 5 5 7 8 8 7 7 6 5 6 5 6 7 6 6 7 7 8 7 8 10 10 10 9 9 11 12 12 8 7 9 10 11 13 14 16 15 13 11 10 11 13 9 7 7 6 9 12 12 17 26
9 11 12 12 14 16 16 15 15 15 15 14 14 14 13 13 13 12 11 10 10 10 9 9 9 8 8 8 8 8 7 6 6 6 7 8 9 9 7 6 6 7 7 6 6 7 7 6 6 7 7 8 8 9 9 10 10 9 9 9 9 12 9 7 10 10 11 12 12 14 14 13 11 8 8 12 9 6 6 6 8 11 11 12 21
11 10 10 10 11 13 15 15 15 16 15 15 14 14 13 13 13 13 12 11 10 10 10 9 9 9 9 8 8 8 8 7 7 7 8 8 8 7 6 5 6 7 7 7 7 7 7 6 7 6 7 8 8 9 10 10 9 8 10 10 8 10 7 7 10 10 9 12 12 14 15 14 16 12 11 14 12 10 9 5 7 11 10 12 19
12 10 9 9 8 9 12 14 15 15 16 16 15 14 14 14 14 14 13 12 11 10 10 10 10 9 9 9 8 8 8 7 7 6 6 7 6 5 4 5 7 7 7 7 7 7 6 6 6 6 7 8 8 10 10 9 9 8 10 11 9 9 8 7 11 11 10 10 12 14 14 14 17 14 13 15 14 14 12 6 8 12 8 11 16
11 11 10 10 9 9 11 14 15 15 16 16 15 15 14 14 15 14 13 13 12 11 11 11 11 10 9 9 8 8 8 8 7 7 6 6 5 6 6 6 7 6 7 7 7 6 6 6 6 7 7 8 8 10 9 9 9 7 9 11 9 9 9 8 10 12 11 9 10 12 13 15 17 13 14 16 15 14 13 8 8 10 8 9 12
11 12 12 10 10 11 12 13 14 15 16 16 16 15 14 15 16 14 14 14 13 12 12 11 11 11 10 9 9 8 8 8 7 8 8 7 6 7 8 8 8 8 8 7 6 6 7 7 7 7 7 7 8 9 9 9 9 8 8 9 10 9 8 9 11 11 11 10 10 10 11 15 16 12 14 16 15 14 14 13 10 7 7 7 7
11 11 11 10 11 13 14 14 14 15 16 17 17 16 15 15 15 15 14 14 14 13 13 12 12 11 11 10 10 9 9 8 8 8 8 9 8 8 8 8 9 9 9 8 7 7 7 7 7 7 7 7 8 8 9 9 8 8 9 8 10 9 7 10 11 10 10 10 10 10 10 13 14 12 13 15 17 16 14 15 14 8 6 6 5
10 11 11 11 12 13 15 15 15 15 17 17 17 16 16 15 15 15 14 14 15 14 13 13 12 12 11 11 11 10 10 10 9 8 8 9 9 9 9 9 8 8 8 8 8 8 8 8 8 8 7 7 7 7 8 8 7 8 9 8 10 9 7 10 11 9 9 9 9 10 11 12 11 11 13 14 16 17 15 15 15 12 9 6 5
10 11 10 11 11 11 13 15 14 16 17 17 17 16 16 15 15 15 15 15 15 15 14 13 13 12 12 12 12 11 11 10 10 10 9 9 9 10 11 10 10 9 9 9 9 9 9 9 9 9 8 7 7 7 7 7 7 7 8 8 9 9 8 9 9 8 9 8 8 11 13 12 8 9 13 14 15 15 14 15 15 15 14 9 5
7 9 9 10 9 10 13 14 14 16 16 15 16 15 15 15 15 15 16 15 15 15 14 13 13 12 11 12 12 12 11 11 10 10 9 9 10 10 10 11 11 10 10 10 9 10 10 10 10 9 8 8 7 7 7 7 7 7 7 7 7 8 8 8 7 7 8 8 8 9 12 12 7 8 12 13 15 14 13 15 16 15 16 14 10
4 8 9 9 10 11 15 15 13 15 15 13 14 14 14 15 14 14 15 15 15 15 15 14 13 12 11 11 12 12 11 11 10 10 10 10 10 10 10 10 10 10 10 10 10 11 10 10 10 9 9 9 8 8 7 7 7 8 7 7 6 6 7 7 6 7 8 7 8 9 12 12 8 10 12 12 13 14 13 16 16 15 16 16 12
4 6 8 9 10 10 15 15 12 14 15 14 16 15 14 14 13 14 15 15 15 16 15 14 14 13 12 11 12 12 11 11 11 11 11 11 11 11 10 10 9 9 9 10 10 11 11 10 10 10 10 9 8 8 7 5 7 8 8 6 5 6 7 6 6 7 7 7 8 8 12 13 10 10 12 12 12 13 14 15 16 15 17 17 12
2 3 6 8 9 9 13 13 10 12 15 14 16 16 14 14 13 14 15 15 15 16 16 14 13 13 13 13 12 13 12 12 12 12 12 12 11 11 11 11 11 10 10 11 11 11 11 11 10 10 10 10 9 8 6 5 6 8 8 7 6 5 6 6 6 6 7 8 8 8 10 12 10 9 11 11 11 13 13 14 16 16 17 16 13
3 2 4 7 9 7 10 12 10 12 15 14 14 16 15 16 14 14 17 17 15 15 16 15 14 13 13 14 13 13 13 12 12 13 13 12 12 11 11 11 11 12 11 12 12 12 11 11 11 11 11 10 10 9 7 7 7 7 7 7 6 6 6 6 6 5 7 8 8 8 9 11 11 10 10 11 11 12 13 14 16 15 15 15 15
5 3 2 5 8 6 7 11 11 12 14 13 12 13 13 14 14 13 15 18 15 14 16 16 15 14 13 13 13 13 13 13 13 14 13 13 13 12 12 12 12 12 12 13 12 12 12 12 12 12 12 11 11 10 9 8 7 7 8 7 7 6 5 6 6 5 6 7 8 8 7 9 11 10 10 11 13 13 14 15 15 15 15 15 15
5 3 3 4 6 5 6 8 9 9 11 13 13 11 10 11 13 11 11 16 15 12 13 15 15 14 14 14 14 14 14 14 14 14 14 13 13 13 13 13 13 13 13 13 13 13 13 13 13 13 13 12 12 10 8 7 5 6 8 8 8 7 6 6 6 5 6 6 7 8 7 7 10 10 10 11 13 13 13 14 15 16 17 17 16
4 3 4 3 3 4 4 5 7 6 7 11 12 9 8 9 11 10 8 11 14 11 10 12 13 13 14 14 14 14 15 15 15 15 14 14 13 13 14 13 14 14 14 14 14 14 14 14 14 13 13 12 12 10 7 7 7 8 9 9 10 10 7 7 6 5 6 6 7 7 6 6 8 9 9 9 11 11 12 13 15 16 17 17 16
4 4 4 2 2 2 1 1 1 3 4 7 10 9 9 9 10 10 5 5 9 11 9 10 11 12 13 14 15 15 14 14 15 15 14 14 14 14 14 14 14 14 14 14 14 14 14 15 15 14 13 12 10 9 9 9 9 8 10 11 11 10 8 7 7 5 6 6 7 7 4 4 6 6 6 6 8 10 11 12 14 15 16 15 15
6 6 4 2 1 3 4 5 5 6 6 1 4 6 6 7 8 9 6 6 7 10 8 9 10 11 11 12 13 13 13 13 13 13 14 14 14 15 15 15 15 15 15 15 14 14 14 16 17 16 14 11 9 9 12 13 11 9 10 11 10 9 9 7 6 5 5 5 6 6 2 2 4 4 3 4 6 8 9 10 12 13 14 13 13
8 8 6 4 2 1 4 7 6 6 6 4 2 4 3 3 5 7 6 7 8 9 7 8 9 10 11 11 11 11 12 13 13 13 14 14 15 16 16 16 16 16 17 16 16 16 16 17 18 16 14 13 13 12 14 16 14 11 12 11 9 9 10 8 6 5 5 5 5 5 3 0 3 1 2 3 5 6 7 8 11 12 12 11 12
10 10 7 5 5 4 4 4 2 3 3 4 4 3 2 2 2 3 3 6 7 7 6 7 8 9 9 10 11 12 12 13 13 14 15 15 16 17 17 17 17 17 17 18 17 17 17 17 17 16 14 15 15 13 13 15 14 13 13 12 10 9 8 8 8 6 6 5 5 5 4 1 1 1 1 3 3 5 5 6 10 12 12 12 11
11 11 8 7 7 7 4 3 1 1 2 5 6 3 6 5 3 2 3 3 4 4 5 5 7 8 8 10 12 13 13 13 14 14 15 16 16 16 17 17 18 18 19 18 18 17 17 16 16 16 14 13 12 12 14 16 15 14 14 12 12 11 9 8 9 8 7 7 5 4 3 2 2 1 2 4 3 3 3 3 7 11 12 13 13
13 12 10 9 10 9 6 5 5 4 4 3 3 2 5 4 3 6 5 2 1 1 3 5 7 8 8 9 11 11 11 11 13 13 14 15 14 15 17 18 18 19 19 18 18 17 17 16 16 16 13 10 11 15 17 18 18 17 14 10 11 13 12 11 10 9 9 6 4 3 3 5 5 3 2 5 4 3 3 1 4 8 10 12 13
12 11 10 10 10 9 8 7 7 6 6 6 2 2 6 7 6 6 4 2 2 3 5 5 7 8 8 8 8 10 10 11 11 12 12 13 13 14 17 17 17 18 18 17 17 17 17 17 16 15 13 11 12 16 18 18 19 18 14 10 10 12 14 13 11 10 10 7 4 4 4 5 4 3 3 2 1 3 6 5 2 3 7 9 11
10 9 10 11 9 10 10 8 7 8 10 10 7 6 8 7 4 3 2 1 2 3 3 3 6 8 7 7 8 9 10 10 11 12 13 13 14 16 17 17 18 18 16 16 17 18 19 19 17 17 16 15 14 15 16 17 17 16 14 11 8 9 13 14 12 11 9 6 4 5 5 4 2 4 4 3 2 3 5 7 7 4 3 5 7
8 9 11 10 9 10 11 9 10 12 12 11 8 6 6 5 4 3 2 1 1 2 3 4 6 8 8 9 9 10 10 10 10 11 12 13 13 14 14 15 15 16 15 16 17 18 18 18 16 17 16 15 15 16 17 17 17 16 13 10 7 7 10 12 12 12 10 6 4 5 5 4 1 1 1 1 2 4 4 7 7 5 2 3 6
11 11 10 11 11 11 11 11 11 12 11 10 9 8 7 7 6 5 4 4 5 6 7 8 8 10 12 13 14 14 14 14 14 14 15 15 15 14 14 14 14 14 15 16 16 16 16 14 13 15 15 13 14 16 17 17 17 16 14 11 8 7 9 11 12 12 11 7 5 6 5 3 2 2 2 2 4 5 5 7 5 5 7 4 8
14 14 13 14 14 12 12 12 11 11 10 9 8 7 7 7 6 5 7 9 10 10 11 13 12 12 14 15 15 16 16 15 15 15 15 17 17 18 18 16 15 14 15 15 16 16 15 13 13 15 16 14 16 18 18 17 17 17 15 13 10 9 9 11 12 12 10 7 6 7 5 2 2 3 2 3 5 6 5 8 7 6 10 5 7
17 17 17 16 15 13 13 13 13 13 12 11 10 9 9 10 10 10 11 11 11 11 12 13 13 13 14 15 15 15 15 16 16 16 17 17 17 18 18 17 17 16 16 16 16 17 16 13 13 16 17 16 16 18 19 18 18 18 17 14 12 10 9 10 11 10 9 7 7 8 7 3 2 2 2 5 6 6 5 8 10 0 9 7 5
18 18 18 18 16 15 15 14 14 15 14 14 14 13 12 11 11 11 11 10 10 11 12 13 13 13 14 15 15 15 15 16 16 16 16 16 17 17 18 19 19 18 17 17 15 15 16 14 12 15 17 17 17 17 17 18 19 19 19 16 13 11 10 10 11 11 9 8 8 8 9 8 4 1 3 5 6 6 4 6 10 5 5 8 6
17 18 20 19 17 16 15 14 14 13 13 13 14 15 14 12 11 10 10 10 10 10 11 12 12 13 13 13 13 14 14 15 15 14 14 16 18 18 18 19 19 19 18 17 16 14 15 15 12 12 16 17 18 18 17 17 19 19 20 18 14 13 12 10 11 11 10 9 8 7 7 10 9 6 6 7 7 6 3 4 8 8 8 10 8
19 19 20 19 17 16 15 14 13 13 13 13 12 12 13 11 10 10 10 9 9 10 11 12 13 14 13 12 13 14 14 14 13 12 14 17 18 18 18 17 17 18 18 19 18 16 15 14 13 11 13 15 17 18 18 18 18 19 20 18 16 16 14 10 10 11 13 13 10 7 5 6 7 7 7 7 7 4 1 1 4 6 7 7 7
18 18 18 18 17 16 15 14 14 13 13 12 12 11 11 9 9 9 9 9 9 10 11 13 14 13 12 13 14 15 14 13 13 13 15 18 19 18 17 16 16 16 17 18 19 18 16 14 13 12 12 13 15 16 19 19 19 19 20 20 18 16 14 10 7 8 13 16 13 9 6 3 3 4 6 7 6 4 3 2 1 2 2 3 5
16 16 17 18 16 16 16 15 14 14 13 12 12 11 9 8 8 9 9 10 10 10 12 13 14 13 14 14 15 15 14 14 13 14 17 20 21 19 17 17 17 16 15 15 17 18 17 14 13 12 12 13 14 16 18 20 20 20 21 21 19 17 16 12 6 5 13 16 13 10 6 2 1 4 5 5 5 5 5 4 2 2 4 4 2
17 17 18 18 16 16 16 15 14 13 12 11 11 10 9 8 7 8 9 10 10 11 12 14 14 14 15 15 15 15 15 15 16 18 19 20 20 20 19 18 18 17 15 15 16 16 14 14 14 13 12 10 11 16 19 21 21 21 22 22 20 18 17 15 9 8 15 15 11 9 6 3 3 5 5 5 4 6 7 7 4 4 4 4 1
18 18 18 18 17 16 16 15 14 12 11 10 9 9 9 8 7 8 9 10 10 11 13 14 14 14 15 16 15 15 15 17 19 20 19 19 19 20 20 19 19 19 18 16 16 15 15 15 14 14 16 15 8 12 19 21 21 21 22 23 22 19 19 17 12 12 15 13 10 9 6 3 5 6 4 3 3 5 8 9 7 6 6 5 1
19 19 19 18 17 16 16 14 13 11 10 9 8 9 9 8 8 8 9 10 10 12 14 14 14 15 16 15 15 16 18 19 19 19 18 18 19 19 19 18 18 18 18 18 18 17 17 17 15 15 18 19 11 4 13 19 21 23 23 23 22 21 20 17 14 15 16 13 11 10 7 5 8 8 6 4 2 3 7 10 9 9 9 5 3
18 19 19 17 16 15 14 13 12 10 9 9 8 9 8 8 8 9 10 10 11 12 14 14 15 15 16 15 16 18 19 18 17 17 17 16 17 17 17 16 16 16 17 18 17 16 16 17 18 17 17 18 15 6 8 16 20 22 23 24 24 23 21 19 17 18 19 17 14 12 9 8 9 8 7 6 4 3 7 10 11 11 10 5 3
18 18 17 16 15 14 13 12 11 9 9 8 8 8 8 8 9 10 10 11 12 13 14 14 14 15 15 15 17 18 18 17 17 18 17 16 17 17 16 17 17 16 17 19 19 18 17 17 18 18 16 16 17 12 5 12 17 19 22 24 26 25 23 22 21 20 19 18 15 13 11 10 9 8 8 8 6 7 9 11 11 12 9 5 4
18 18 17 16 15 14 13 11 10 8 8 8 8 8 8 9 10 11 11 12 13 14 14 14 14 14 14 16 17 17 16 17 18 18 18 18 18 19 20 20 18 17 21 25 25 24 24 23 21 20 17 16 16 13 6 6 11 15 20 25 27 28 27 26 25 22 19 18 15 13 13 11 9 9 9 7 7 8 10 11 11 12 11 9 10
19 19 18 16 15 13 12 11 9 8 8 7 8 8 9 10 11 11 11 12 14 14 13 14 13 13 14 16 17 16 16 17 19 19 20 21 21 21 21 19 19 22 25 27 27 26 26 27 26 23 20 19 18 15 12 11 12 15 20 22 25 29 30 27 25 22 19 17 16 14 13 13 11 10 9 8 8 9 10 10 12 13 13 12 12
19 18 17 15 14 12 12 10 8 8 7 7 8 8 9 10 11 11 11 13 14 13 12 13 13 13 15 17 17 17 18 19 19 20 20 21 21 21 20 19 23 29 31 30 28 27 26 27 28 28 27 24 21 18 15 12 11 14 18 19 21 27 29 27 26 24 19 17 16 14 13 14 13 11 10 9 10 11 11 12 13 13 12 13 11
Wind_Direction
158 145 156 173 161 160 161 157 158 153 157 167 171 180 178 174 180 181 187 189 190 197 204 210 210 214 234 252 221 203 197 237 247 208 185 42 29 2 324 315 309 323 309 293 313 295 319 356 335 334 335 333 335 333 333 332 334 334 343 2 354 342 337 346 357 347 341 341 337 340 343 342 339 359 11 0 358 2 358 353 348 347 345 351 352
146 143 166 172 159 164 163 157 161 158 161 171 173 180 179 178 184 185 187 190 200 211 221 233 239 246 290 293 267 247 194 222 252 178 132 355 348 301 298 286 296 313 289 281 306 286 16 358 332 328 329 332 333 330 331 329 334 335 348 14 0 341 339 351 354 348 349 342 333 343 344 342 341 357 2 347 348 1 357 353 348 346 348 353 350
142 157 172 166 165 167 163 162 165 163 164 170 176 179 179 183 185 187 189 191 203 217 227 237 252 278 318 331 315 341 13 39 307 38 358 306 251 255 275 264 291 306 297 307 315 318 6 345 323 322 322 328 325 319 324 329 336 335 351 11 354 343 347 349 350 349 349 341 337 348 340 339 338 352 353 340 346 358 352 349 344 343 351 353 348
155 174 169 160 162 160 163 168 165 166 169 171 177 179 181 187 187 188 192 193 198 207 210 217 236 256 286 322 311 329 356 7 312 279 252 237 241 256 260 262 281 298 307 314 310 325 343 325 319 322 318 324 321 318 327 331 336 335 352 7 351 353 354 345 349 349 348 348 347 343 330 334 334 344 344 339 348 348 344 347 342 346 353 349 348
169 175 163 160 157 157 166 169 166 171 176 175 177 181 184 186 189 190 190 194 199 199 200 204 213 232 243 273 286 299 289 251 261 264 240 226 258 269 261 282 290 291 300 302 307 319 323 316 319 317 314 320 321 326 332 330 334 337 352 3 353 357 353 344 350 349 347 350 352 353 346 333 328 344 341 337 344 341 342 346 343 348 350 345 346
172 168 165 169 159 160 167 168 172 177 178 176 175 182 185 183 187 188 188 192 196 196 195 198 204 211 207 207 223 230 233 232 240 267 260 258 312 305 277 293 288 281 280 287 302 307 310 314 310 306 309 314 320 330 328 326 333 336 342 352 356 354 350 350 352 348 347 348 347 352 357 337 324 345 349 330 334 336 341 344 343 344 344 345 344
169 166 165 168 162 161 167 173 178 177 174 172 172 180 182 181 184 183 186 190 191 193 192 195 202 210 215 218 228 233 246 255 255 289 292 283 300 306 293 285 279 270 261 279 300 303 307 310 304 302 305 310 323 331 325 325 332 333 328 338 356 350 346 353 344 339 343 345 342 341 347 345 336 346 354 327 326 332 338 340 340 340 343 347 340
166 168 162 159 163 163 168 178 180 175 171 168 171 178 177 179 182 180 184 188 189 192 190 196 203 212 224 233 248 256 263 273 276 279 270 255 268 280 286 284 282 276 271 292 301 304 305 303 301 302 305 311 319 325 324 324 328 325 316 326 348 341 335 345 338 338 338 341 346 339 341 350 345 346 348 341 330 323 332 338 338 340 345 347 340
163 163 157 153 162 164 170 180 179 172 169 169 172 174 175 177 179 181 184 187 188 189 190 201 207 214 225 229 242 251 254 262 270 267 249 235 251 260 265 276 293 299 290 291 293 299 298 294 299 305 314 317 319 323 323 322 323 322 318 325 336 333 330 344 344 342 336 342 350 336 335 350 348 342 343 344 340 326 331 335 335 340 345 345 342
161 155 154 158 165 165 170 178 176 170 171 173 172 172 174 175 178 181 184 187 189 191 195 203 209 217 224 228 236 244 247 249 256 264 250 237 247 251 246 252 273 281 279 290 294 293 293 292 301 309 316 319 322 324 319 321 325 323 321 323 330 331 336 357 352 342 337 341 340 327 334 354 345 331 342 347 343 333 331 329 332 339 340 340 340
158 150 152 160 164 162 168 175 171 169 172 173 172 174 176 175 179 183 186 190 189 190 197 201 208 216 222 229 236 242 250 246 237 250 256 244 237 238 237 236 252 266 272 283 284 281 288 296 299 303 311 316 320 321 318 320 323 318 310 311 322 324 328 356 346 333 331 332 336 336 344 348 327 317 348 346 338 332 331 330 333 333 330 330 337
152 148 147 147 153 158 167 171 168 169 174 175 176 179 180 177 179 182 185 191 190 192 199 201 208 215 220 229 234 239 253 259 246 242 255 260 248 231 222 231 253 265 265 269 271 272 279 287 291 296 305 312 315 315 317 317 317 315 310 311 322 322 333 357 330 321 331 338 347 346 343 339 323 326 353 344 333 334 332 330 331 332 332 329 337
147 140 135 135 147 161 168 169 168 173 179 180 180 183 184 179 179 184 186 190 192 195 201 204 210 215 220 227 232 236 247 262 269 264 260 270 276 261 241 243 255 260 260 268 269 268 273 280 290 297 301 308 311 312 316 316 313 312 308 315 331 333 346 354 322 321 339 344 348 342 339 334 321 330 355 344 337 341 337 337 335 339 342 328 335
131 128 134 144 156 164 171 171 171 179 184 186 185 187 188 179 179 187 186 189 195 197 203 207 211 216 220 225 229 233 237 245 259 270 268 261 260 263 260 255 259 262 263 269 265 264 276 282 286 294 297 302 308 312 317 313 310 309 306 315 329 329 336 337 318 324 336 341 346 342 335 325 318 338 356 342 341 344 339 342 337 340 344 327 334
130 136 144 152 158 161 171 175 175 182 189 191 189 189 190 179 179 190 188 188 194 196 203 207 210 216 218 223 228 230 235 238 240 250 258 257 252 254 254 249 252 258 260 264 265 266 273 276 278 288 294 298 307 314 316 313 312 313 309 315 321 320 330 329 317 323 336 344 347 340 330 322 322 345 352 339 342 342 340 348 346 339 341 332 339
147 144 149 156 157 159 167 175 180 185 191 195 192 190 190 181 181 192 191 189 193 196 202 206 209 214 216 219 225 227 230 236 238 239 245 249 251 251 253 251 247 247 251 257 262 262 263 267 273 282 289 292 301 310 311 310 311 311 310 313 314 319 335 328 321 331 341 344 343 333 324 324 328 341 346 339 340 340 344 352 350 343 337 335 343
154 147 155 156 156 162 166 173 184 188 191 197 196 191 189 185 185 191 193 191 193 196 200 204 207 211 216 217 220 225 227 232 236 238 243 246 244 245 250 256 254 248 249 254 257 258 258 262 266 273 281 284 290 302 306 305 305 304 308 310 310 323 339 326 324 338 341 337 337 325 313 317 328 341 343 340 338 339 346 351 350 348 342 332 328
158 153 153 146 151 164 161 169 190 193 190 195 197 192 188 188 189 191 194 195 193 196 198 202 205 207 214 217 218 224 227 231 235 237 243 245 242 244 244 247 253 254 256 257 257 257 259 261 262 265 273 277 281 289 295 298 297 295 301 304 309 324 333 323 325 339 337 331 331 326 317 314 328 343 338 337 337 338 346 352 350 349 342 328 315
163 154 144 138 148 164 161 174 198 190 185 194 195 193 190 190 194 193 196 199 195 196 197 198 203 205 211 218 218 224 228 230 235 236 240 246 247 249 247 244 247 249 253 258 258 259 261 261 261 260 266 272 276 283 288 292 292 289 292 295 306 323 324 322 335 344 335 328 330 330 316 310 335 353 335 335 338 338 351 354 348 347 341 332 334
177 158 150 148 150 167 170 184 201 175 172 196 194 194 194 189 197 199 197 203 200 198 200 197 201 203 206 215 214 219 227 228 233 235 236 244 249 252 254 253 251 247 249 255 257 260 261 262 263 263 265 270 273 278 282 286 290 289 285 285 300 317 316 322 342 341 332 330 332 325 310 314 358 2 332 333 341 343 356 355 346 346 341 336 342
198 166 155 147 145 168 174 184 199 167 168 198 190 188 195 188 201 207 199 205 205 201 202 200 203 204 203 208 211 214 223 226 230 234 236 241 246 250 256 259 259 254 251 255 257 258 259 261 263 263 265 269 272 277 278 277 287 289 284 284 295 306 311 324 334 331 332 334 328 318 311 324 357 351 327 337 350 350 355 351 346 345 338 336 346
213 176 149 140 143 178 181 179 199 179 177 196 184 181 195 192 202 211 203 208 211 204 204 203 205 208 205 208 212 214 219 222 227 232 235 241 245 249 254 256 258 258 255 255 256 257 259 259 258 258 261 264 265 269 271 272 279 286 286 285 284 286 298 310 316 322 334 334 324 321 319 327 347 342 331 347 357 353 353 345 344 344 337 341 356
176 173 149 141 142 181 190 176 198 200 187 192 183 180 194 196 201 210 204 207 214 207 202 201 203 207 210 211 213 216 219 221 225 230 233 239 244 248 253 254 254 255 254 254 254 255 256 255 254 254 254 257 258 257 259 266 268 271 279 285 283 279 282 293 304 318 329 330 326 325 323 326 337 341 342 353 357 354 352 344 341 342 342 351 0
146 155 149 140 141 177 205 186 202 211 189 187 187 185 196 197 201 215 206 200 212 213 197 194 200 204 208 212 215 218 220 221 226 230 233 237 240 243 246 249 252 253 253 254 254 253 251 250 252 251 249 251 254 250 247 254 261 266 273 282 287 283 280 288 301 313 318 325 326 322 323 323 327 341 355 358 358 358 352 346 347 349 349 355 356
129 165 141 134 158 193 215 198 209 218 191 181 181 188 208 206 198 217 215 193 202 216 197 189 197 201 205 212 216 220 223 225 228 231 235 237 240 243 244 247 249 250 251 252 252 251 248 246 246 247 246 247 248 243 238 243 254 263 264 264 272 275 275 279 288 307 313 318 321 317 323 326 327 348 8 0 358 360 351 349 0 1 354 353 355
155 168 117 123 202 214 217 210 212 225 207 182 173 184 226 223 195 205 225 195 192 208 203 191 195 201 207 212 217 222 226 230 232 234 237 238 239 242 244 245 247 249 251 252 252 252 251 249 247 245 242 245 245 235 222 227 247 265 266 256 253 254 255 264 272 290 300 305 317 316 321 334 336 355 11 359 354 358 355 358 8 4 353 351 357
168 118 102 156 247 251 262 268 222 260 245 187 175 193 221 221 196 189 219 219 189 191 202 203 203 208 213 216 220 225 229 233 237 239 239 240 241 242 243 245 246 249 251 252 253 255 255 256 254 249 246 248 243 224 218 234 248 264 269 262 254 247 247 258 265 276 287 294 306 306 312 348 347 354 7 357 356 5 10 10 7 359 350 354 3
156 124 141 170 1 347 3 23 15 326 307 274 183 208 212 211 201 182 194 231 201 182 196 214 217 222 227 229 229 229 233 238 242 244 245 244 244 244 244 246 246 247 249 250 252 254 256 259 256 250 244 242 237 231 243 254 252 247 253 257 256 252 252 253 252 265 280 285 297 294 282 4 339 339 4 6 6 16 22 12 1 357 353 0 13
159 145 146 135 107 6 27 34 13 318 306 330 295 241 217 208 209 185 184 202 185 173 194 223 230 232 236 241 243 239 240 243 244 245 248 248 250 250 249 248 249 249 249 250 250 249 252 256 257 251 235 223 229 242 254 259 252 240 240 244 249 255 257 253 246 259 267 269 292 283 227 324 348 13 43 12 9 21 28 17 10 14 11 11 17
153 141 140 154 160 134 85 59 3 296 296 335 309 274 33 26 257 210 170 163 155 167 203 234 249 250 246 249 254 252 250 252 249 246 247 249 250 252 252 252 252 251 251 253 253 250 250 252 256 255 235 222 231 239 243 249 247 236 234 242 252 256 260 256 245 246 252 253 270 260 217 208 19 85 351 333 358 16 25 24 23 31 36 31 24
143 140 154 167 148 124 120 139 115 357 21 7 336 348 48 27 326 17 73 139 158 186 215 244 265 267 265 266 263 255 252 257 258 254 254 255 252 250 253 254 255 256 256 258 258 256 256 255 257 257 243 230 235 234 231 241 244 239 241 254 260 253 253 264 255 243 248 252 249 240 227 246 242 214 285 284 295 344 3 29 30 36 46 47 39
146 152 169 164 140 134 150 154 144 155 138 88 329 343 70 51 25 46 48 39 20 335 275 278 281 275 274 279 277 270 267 270 268 262 264 266 261 256 256 254 256 259 258 258 260 260 261 262 262 259 248 236 242 244 243 245 244 241 244 260 270 257 248 264 271 256 251 253 242 227 239 254 238 207 261 271 264 291 311 335 31 37 44 49 47
152 159 166 155 141 142 151 151 154 163 142 114 75 77 85 67 54 57 49 26 9 319 283 286 297 293 290 297 300 297 297 298 293 290 289 287 281 277 272 266 265 267 264 261 262 261 260 261 260 252 240 236 246 253 252 245 238 237 237 248 272 267 252 258 273 268 256 251 241 226 235 258 243 174 153 166 212 284 298 289 283 34 36 39 45
151 149 145 137 136 143 148 150 138 116 104 97 81 76 83 78 72 75 64 357 316 298 292 332 333 322 317 315 308 302 299 296 293 291 288 283 281 281 281 277 272 269 269 269 268 266 264 262 255 242 235 237 244 252 253 244 237 236 233 237 258 265 256 259 270 274 264 246 231 226 233 257 231 152 149 142 157 260 290 293 276 267 351 24 40
117 111 114 118 129 139 140 139 126 113 110 112 111 109 112 118 129 122 115 162 324 7 43 34 354 336 336 333 326 321 315 306 302 299 295 291 286 285 289 291 285 277 276 277 276 275 277 272 256 239 234 238 244 250 251 246 240 236 231 233 245 251 251 254 263 274 270 246 231 230 233 252 258 187 223 237 250 252 270 305 293 241 188 57 63
98 99 105 116 126 131 130 130 129 126 125 126 134 148 149 144 146 138 111 79 49 32 30 30 11 350 348 347 340 335 332 329 329 326 323 322 322 321 319 313 304 296 291 289 285 284 285 279 256 235 229 236 247 251 249 243 239 235 230 231 238 236 233 233 243 261 260 243 236 233 230 248 249 243 271 258 256 258 276 318 319 172 152 80 70
106 107 107 112 118 123 126 126 124 122 121 118 118 119 107 93 86 77 62 50 41 26 15 15 7 352 348 344 336 332 332 334 335 333 331 331 330 327 323 317 310 302 294 293 291 288 287 278 254 236 233 239 247 248 244 237 234 234 229 229 237 236 226 224 233 251 253 238 225 218 216 219 173 191 246 254 254 260 283 324 330 159 146 102 80
111 112 112 111 112 112 109 105 96 89 88 89 91 96 89 70 54 49 48 41 30 17 6 3 357 349 343 338 336 338 342 345 343 337 332 330 327 325 325 324 319 309 298 294 291 290 288 277 253 241 241 244 243 243 240 232 231 233 228 227 235 230 217 218 230 242 244 232 216 211 217 229 137 140 253 255 254 266 288 335 340 262 150 138 128
119 122 119 115 112 109 103 97 89 82 77 73 71 73 73 66 54 46 44 38 23 8 359 353 350 346 338 335 341 348 350 347 338 329 328 331 333 332 329 325 320 313 306 300 296 295 294 286 264 249 249 248 241 241 241 232 228 229 225 224 227 219 210 221 230 227 219 212 207 207 224 236 223 210 283 262 257 275 301 356 357 357 125 124 124
124 122 119 117 116 114 109 104 98 92 87 79 72 68 65 59 52 44 35 28 19 5 353 348 348 342 336 338 345 347 343 334 323 324 334 338 334 329 323 320 318 315 313 311 307 305 301 297 286 262 248 244 240 238 239 232 226 224 222 221 219 210 206 219 229 217 197 190 193 200 223 231 229 248 280 266 262 284 315 15 22 39 81 95 95
128 127 125 122 120 116 112 108 102 95 90 84 79 75 68 57 48 42 29 17 12 3 354 352 349 340 337 344 345 337 328 321 319 328 338 333 325 320 316 316 316 315 316 316 312 305 297 295 295 277 251 243 242 240 238 232 224 220 221 220 216 209 203 210 233 222 193 177 178 190 206 211 222 257 277 262 259 277 307 24 37 57 77 93 104
130 130 124 117 114 110 104 98 94 89 85 83 79 73 68 58 46 34 21 13 10 5 1 356 345 339 344 345 336 326 322 321 325 336 339 329 321 315 310 310 310 309 310 313 313 311 304 295 291 284 264 247 242 240 238 233 224 220 222 220 215 210 201 203 239 228 188 174 174 186 196 176 176 248 261 255 259 255 219 208 81 88 113 123 118
126 123 117 114 112 106 98 91 88 84 81 79 76 69 62 55 45 31 20 16 13 8 2 352 342 342 346 339 329 327 328 327 330 338 337 327 318 314 311 309 308 305 305 311 312 310 308 306 302 294 275 253 241 238 238 234 227 223 222 218 213 207 200 204 228 196 168 162 161 174 193 191 185 229 243 254 261 241 220 218 191 173 191 178 129
124 118 113 111 108 101 95 89 84 81 80 77 76 71 59 47 41 33 22 17 14 9 359 348 343 344 341 333 328 330 333 333 336 335 329 321 319 321 321 321 320 317 312 309 306 306 315 323 321 318 310 286 250 237 239 236 228 224 220 214 208 201 198 205 213 175 157 151 147 154 159 161 196 218 243 262 255 229 219 219 218 216 203 182 116
118 112 107 106 104 99 95 90 84 80 78 77 77 73 57 39 34 36 25 15 11 5 354 345 342 340 336 330 330 333 337 337 336 332 326 324 326 327 326 327 328 325 321 318 318 325 329 325 323 332 338 333 295 236 237 237 227 222 220 212 203 197 196 199 198 176 162 155 150 145 136 161 208 218 239 256 239 221 215 214 220 227 213 197 245
113 109 107 107 105 101 96 93 89 83 79 77 77 71 58 38 28 31 23 11 5 359 349 341 337 336 334 334 337 343 343 338 334 333 331 331 331 328 328 330 330 329 331 332 332 334 330 326 331 341 338 335 335 249 232 235 225 218 216 207 197 194 195 194 190 179 171 167 161 152 154 205 219 218 223 219 199 204 209 211 220 221 214 223 278
115 115 115 113 109 105 100 96 91 81 73 68 64 62 57 41 27 23 16 5 0 354 344 337 337 337 339 343 347 347 342 336 334 334 331 328 327 324 323 324 323 324 325 323 322 324 325 326 329 329 324 327 338 331 239 229 220 211 206 199 193 192 192 187 180 171 168 171 171 161 168 205 216 211 215 219 217 205 206 213 220 214 212 236 262
122 122 120 115 109 106 102 98 93 84 74 66 58 51 46 38 26 16 9 3 358 351 342 338 340 341 346 351 349 342 337 334 332 330 326 323 324 325 324 325 328 336 344 343 339 333 327 321 318 317 320 325 326 322 260 220 218 210 201 195 192 192 192 185 178 170 167 172 175 170 177 198 208 206 211 217 217 211 211 217 219 214 212 213 169
117 110 107 105 104 104 101 99 97 92 84 76 63 47 36 32 23 10 7 5 357 348 344 342 343 346 353 355 346 336 334 334 331 329 329 329 330 335 338 340 347 358 1 358 355 346 337 332 325 317 316 317 315 318 313 264 253 234 215 204 198 195 192 186 182 178 173 172 173 174 181 187 190 198 209 215 219 218 218 219 219 216 208 187 158
109 104 103 103 103 105 105 103 101 97 89 79 65 47 31 24 16 8 9 6 355 349 348 346 345 349 353 348 338 332 334 334 333 334 336 335 334 335 336 341 349 352 348 347 349 347 341 339 334 323 311 300 295 301 309 303 284 253 229 217 209 202 195 187 182 179 176 175 176 176 179 179 180 194 211 221 226 223 220 223 228 226 209 181 157
113 111 110 109 108 108 103 98 94 89 84 77 65 48 29 18 11 9 11 6 355 350 348 345 344 347 345 340 335 334 337 337 338 340 338 335 333 332 333 337 342 343 341 342 344 342 339 341 343 340 331 313 292 289 301 303 278 245 227 219 212 205 196 188 183 178 174 176 179 179 179 177 178 191 208 221 225 218 218 230 234 218 186 162 152